| time (UTC) | temp F | wind direction | speed MPH | gust MPH | rain 1hr in | rain 24hr in | rain mn in | humidity % | barometer mb |
| 20260504044556 | 49 | 293 | 3.0 | 6.0 | 0.00 | 0.00 | 0.00 | 53 | 1014.3 |
| 20260504043052 | 49 | 258 | 3.0 | 7.0 | 0.00 | 0.00 | 0.00 | 52 | 1014.2 |
| 20260504041544 | 49 | 269 | 2.0 | 8.0 | 0.00 | 0.00 | 0.00 | 51 | 1014.0 |
| 20260504040059 | 50 | 245 | 3.0 | 7.0 | 0.00 | 0.00 | 0.00 | 51 | 1013.9 |
| 20260504034558 | 50 | 261 | 2.0 | 7.0 | 0.00 | 0.00 | 0.00 | 50 | 1013.9 |
| 20260504033138 | 50 | 290 | 2.0 | 6.0 | 0.00 | 0.00 | 0.00 | 50 | 1013.9 |
| 20260504031538 | 49 | 269 | 4.0 | 8.0 | 0.00 | 0.00 | 0.00 | 50 | 1014.0 |
| 20260504030044 | 49 | 289 | 1.0 | 6.0 | 0.00 | 0.00 | 0.00 | 50 | 1013.8 |
| 20260504024536 | 49 | 269 | 2.0 | 5.0 | 0.00 | 0.00 | 0.00 | 50 | 1014.0 |
| 20260504023036 | 50 | 257 | 2.0 | 4.0 | 0.00 | 0.00 | 0.00 | 49 | 1014.0 |
| 20260504021534 | 49 | 286 | 1.0 | 2.0 | 0.00 | 0.00 | 0.00 | 49 | 1013.9 |
| 20260504020035 | 49 | 277 | 1.0 | 3.0 | 0.00 | 0.00 | 0.00 | 49 | 1014.1 |
| 20260504014534 | 49 | 281 | 0.0 | 2.0 | 0.00 | 0.00 | 0.00 | 48 | 1014.0 |
| 20260504013045 | 49 | 279 | 0.0 | 2.0 | 0.00 | 0.00 | 0.00 | 48 | 1013.9 |
| 20260504011533 | 49 | 292 | 0.0 | 1.0 | 0.00 | 0.00 | 0.00 | 49 | 1013.8 |
| 20260504010032 | 49 | 323 | 0.0 | 0.0 | 0.00 | 0.00 | 0.00 | 49 | 1013.5 |
| 20260504004532 | 50 | 323 | 0.0 | 0.0 | 0.00 | 0.00 | 0.00 | 48 | 1013.4 |
| 20260504003033 | 50 | 323 | 0.0 | 0.0 | 0.00 | 0.00 | 0.00 | 47 | 1013.2 |
| 20260504001530 | 51 | 332 | 1.0 | 4.0 | 0.00 | 0.00 | 0.00 | 46 | 1013.0 |
| 20260504000030 | 52 | 332 | 1.0 | 4.0 | 0.00 | 0.00 | 0.00 | 45 | 1012.8 |
| 20260503234531 | 53 | 324 | 2.0 | 9.0 | 0.00 | 0.00 | 0.00 | 43 | 1012.6 |
| 20260503233035 | 53 | 322 | 5.0 | 13.0 | 0.00 | 0.00 | 0.00 | 42 | 1012.5 |
| 20260503231527 | 54 | 39 | 5.0 | 14.0 | 0.00 | 0.00 | 0.00 | 41 | 1012.4 |
| 20260503230032 | 54 | 58 | 6.0 | 15.0 | 0.00 | 0.00 | 0.00 | 40 | 1012.1 |
| 20260503224527 | 54 | 39 | 4.0 | 15.0 | 0.00 | 0.00 | 0.00 | 39 | 1012.2 |
| 20260503223026 | 54 | 274 | 3.0 | 16.0 | 0.00 | 0.00 | 0.00 | 39 | 1012.1 |
| 20260503221526 | 55 | 332 | 4.0 | 8.0 | 0.00 | 0.00 | 0.00 | 38 | 1011.9 |
| 20260503220023 | 54 | 302 | 5.0 | 13.0 | 0.00 | 0.00 | 0.00 | 37 | 1012.0 |
| 20260503214522 | 55 | 318 | 6.0 | 15.0 | 0.00 | 0.00 | 0.00 | 36 | 1012.1 |
| 20260503213021 | 54 | 63 | 7.0 | 15.0 | 0.00 | 0.00 | 0.00 | 36 | 1012.0 |
| 20260503211532 | 55 | 334 | 7.0 | 12.0 | 0.00 | 0.00 | 0.00 | 36 | 1011.9 |
| 20260503210019 | 55 | 331 | 4.0 | 15.0 | 0.00 | 0.00 | 0.00 | 36 | 1011.9 |
| 20260503204516 | 53 | 287 | 4.0 | 18.0 | 0.00 | 0.00 | 0.00 | 38 | 1012.0 |
| 20260503203016 | 53 | 307 | 10.0 | 23.0 | 0.00 | 0.00 | 0.00 | 36 | 1012.1 |
| 20260503201515 | 53 | 274 | 6.0 | 21.0 | 0.00 | 0.00 | 0.00 | 37 | 1012.1 |
| 20260503200014 | 53 | 347 | 9.0 | 19.0 | 0.00 | 0.00 | 0.00 | 37 | 1012.4 |
| 20260503194511 | 52 | 330 | 6.0 | 18.0 | 0.00 | 0.00 | 0.00 | 39 | 1012.3 |
| 20260503193010 | 51 | 304 | 5.0 | 18.0 | 0.00 | 0.00 | 0.00 | 39 | 1012.5 |
| 20260503191509 | 51 | 322 | 9.0 | 18.0 | 0.00 | 0.00 | 0.00 | 38 | 1012.5 |
| 20260503190015 | 51 | 313 | 5.0 | 11.0 | 0.00 | 0.00 | 0.00 | 41 | 1012.6 |
| 20260503184508 | 50 | 352 | 6.0 | 15.0 | 0.00 | 0.00 | 0.00 | 42 | 1012.6 |
| 20260503183008 | 50 | 342 | 5.0 | 19.0 | 0.00 | 0.00 | 0.00 | 41 | 1012.8 |
| 20260503181504 | 50 | 331 | 8.0 | 19.0 | 0.00 | 0.00 | 0.00 | 42 | 1012.9 |
| 20260503180002 | 50 | 311 | 5.0 | 12.0 | 0.00 | 0.00 | 0.00 | 44 | 1013.0 |
| 20260503174559 | 49 | 1 | 6.0 | 16.0 | 0.00 | 0.00 | 0.00 | 43 | 1012.9 |
| 20260503173114 | 49 | 333 | 5.0 | 14.0 | 0.00 | 0.00 | 0.00 | 47 | 1013.2 |
| 20260503171555 | 47 | 27 | 6.0 | 20.0 | 0.00 | 0.00 | 0.00 | 48 | 1013.1 |
| 20260503081517 | 39 | 315 | 6.0 | 12.0 | 0.00 | 0.07 | 0.00 | 69 | 1011.8 |